Location: Bannatyne
(13.0833°N, 59.5333°W)
Time: 16:54:10
(UTC+00:00)

Transit 2A - Pass Details

Date: 03 February 2020
Orbit: 600 x 959 km, 66.7° (Epoch: 16 February)

Event Time Altitude Azimuth Distance (km) Brightness Sun altitude
Rises 06:36:42 0° 7° (N) 3,196 - -54.9°
Reaches altitude 10° 06:39:51 10° 27° (NNE) 2,344 - -54.1°
Maximum altitude 06:43:19 17° 67° (ENE) 1,964 - -53.3°
Drops below altitude 10° 06:46:59 10° 107° (ESE) 2,499 - -52.4°
Exits shadow 06:48:46 - 118° (ESE) 2,985 9.5 -52.0°
Sets 06:50:27 0° 126° (SE) 3,501 9.9 -51.6°
